This is the latest recevied weather packets stored in our database for station/object W7TRD. If no packets are shown the sender has not sent any weather packets the latest 10 day(s).
| Time | Temp. | Humidity | Pressure | Rain* | Wind** | Luminosity | Snow |
|---|---|---|---|---|---|---|---|
| 1777400120 | 12.78° C | 66% | 1025.1 hPa | 0 mm | - | 334 W/m² | - |
| 1777399818 | 12.78° C | 67% | 1024.9 hPa | 0 mm | - | 303 W/m² | - |
| 1777399515 | 12.22° C | 68% | 1025.2 hPa | 0 mm | - | 303 W/m² | - |
| 1777399212 | 12.22° C | 67% | 1025 hPa | 0 mm | - | 304 W/m² | - |
| 1777398909 | 11.67° C | 68% | 1025 hPa | 0 mm | - | 268 W/m² | - |
| 1777398606 | 12.22° C | 68% | 1024.9 hPa | 0 mm | - | 229 W/m² | - |
| 1777398303 | 12.22° C | 70% | 1025.2 hPa | 0 mm | - | 239 W/m² | - |
| 1777398000 | 12.22° C | 69% | 1025 hPa | 0 mm | - | 290 W/m² | - |
| 1777397696 | 12.22° C | 69% | 1024.9 hPa | 0 mm | - | 262 W/m² | - |
| 1777397392 | 11.67° C | 71% | 1024.8 hPa | 0 mm | - | 260 W/m² | - |
| 1777397088 | 11.67° C | 72% | 1024.8 hPa | 0 mm | - | 219 W/m² | - |
| 1777396785 | 11.67° C | 72% | 1024.7 hPa | 0 mm | - | 239 W/m² | - |
| 1777396482 | 11.67° C | 73% | 1024.7 hPa | 0 mm | - | 223 W/m² | - |
| 1777396179 | 11.11° C | 74% | 1024.9 hPa | 0 mm | - | 218 W/m² | - |
| 1777395874 | 11.11° C | 76% | 1024.9 hPa | 0 mm | - | 179 W/m² | - |
| 1777395570 | 10.56° C | 78% | 1025 hPa | 0 mm | - | 157 W/m² | - |
| 1777395267 | 10.56° C | 79% | 1024.9 hPa | 0 mm | - | 140 W/m² | - |
| 1777394965 | 10.56° C | 79% | 1024.9 hPa | 0 mm | - | 140 W/m² | - |
| 1777394661 | 10.56° C | 79% | 1024.7 hPa | 0 mm | - | 112 W/m² | - |
| 1777394357 | 10.56° C | 80% | 1024.7 hPa | 0 mm | - | 103 W/m² | - |
| 1777394054 | 10.56° C | 80% | 1024.5 hPa | 0 mm | - | 108 W/m² | - |
| 1777393749 | 10.56° C | 80% | 1024.7 hPa | 0 mm | - | 107 W/m² | - |
| 1777393443 | 10.56° C | 80% | 1024.6 hPa | 0 mm | - | 60 W/m² | - |
| 1777393140 | 10.56° C | 81% | 1024.5 hPa | 0 mm | - | 31 W/m² | - |
| 1777392836 | 11.11° C | 80% | 1024.5 hPa | 0 mm | - | 42 W/m² | - |
* Rain latest hour (hover to see other rain measurements)
** Current wind speed in m/s (hover to see current wind gust speed)